Location: Sundre
(51.7972°N, 114.6405°W)
Time: 18:29:09
(UTC-07:00)

N. Korean satellite - Visible Passes

Search period start: 17 November 2019 00:00
Search period end: 27 November 2019 00:00
Orbit: 456 x 506 km, 97.2° (Epoch: 17 November)

Date Brightness Start Highest point End Pass type
(mag) Time Alt. Az. Time Alt. Az. Time Alt. Az.
17 Nov 8.0 06:16:23 10° NNE 06:19:56 42° E 06:23:27 10° S visible
17 Nov 9.4 18:30:58 10° SW 18:33:49 22° W 18:36:45 10° NW visible
18 Nov 9.2 05:51:22 10° NE 05:54:25 23° E 05:57:24 10° SSE visible
18 Nov 7.3 07:24:28 10° N 07:27:53 35° WNW 07:31:16 10° SW visible
18 Nov 8.2 18:04:50 10° SSW 18:08:16 39° W 18:11:47 10° NNW visible
19 Nov 10.1 05:26:56 10° ENE 05:28:46 13° E 05:30:36 10° ESE visible
19 Nov 6.6 06:58:54 10° N 07:02:36 65° WNW 07:06:14 10° SSW visible
19 Nov 6.9 17:39:10 10° S 17:42:49 76° WSW 17:46:33 10° NNW visible
20 Nov 7.0 06:33:30 10° NNE 06:37:13 66° ESE 06:40:51 10° S visible
20 Nov 6.7 17:13:51 10° SSE 17:17:27 57° ENE 17:21:07 10° N visible
20 Nov 10.0 18:49:04 10° SW 18:51:13 15° W 18:53:22 10° NW visible
21 Nov 8.4 06:08:18 10° NNE 06:11:44 34° E 06:15:06 10° SSE visible
21 Nov 9.1 18:22:28 10° SSW 18:25:35 26° W 18:28:46 10° NW visible
22 Nov 9.5 05:43:25 10° NE 05:46:09 19° E 05:48:52 10° SE visible
22 Nov 7.0 07:16:14 10° N 07:19:45 41° WNW 07:23:12 10° SW visible
22 Nov 7.8 17:56:29 10° S 18:00:03 48° W 18:03:41 10° NNW visible
23 Nov 10.2 05:19:30 10° ENE 05:20:29 11° E 05:21:27 10° ESE visible
23 Nov 6.5 06:50:42 10° N 06:54:25 79° WNW 06:58:03 10° SSW visible
23 Nov 6.6 17:30:56 10° SSE 17:34:37 88° ENE 17:38:22 10° NNW visible
24 Nov 7.4 06:25:21 10° NNE 06:28:59 53° E 06:32:33 10° S visible
24 Nov 9.7 18:40:21 10° SW 18:42:55 18° W 18:45:31 10° NW visible
25 Nov 8.8 06:00:13 10° NNE 06:03:28 28° E 06:06:39 10° SSE visible
25 Nov 7.5 07:33:38 10° N 07:36:50 28° WNW 07:39:58 10° SW visible
25 Nov 8.7 18:14:00 10° SSW 18:17:19 31° W 18:20:41 10° NNW visible
26 Nov 9.7 05:35:30 10° NE 05:37:51 16° E 05:40:10 10° SE visible
26 Nov 6.8 07:07:57 10° N 07:11:33 50° WNW 07:15:04 10° SSW visible
26 Nov 7.3 17:48:10 10° S 17:51:49 59° W 17:55:31 10° NNW visible
